Dewpoint
30 27 28 28 28 30 29 30 30 31 28 28 29 31 31 31 31 28 28 28 29 29 28 27 27 30 30 34 43 44 44 45 46 46 44 43 42 42 42 43 41 41 41 42
34 33 30 29 27 27 27 29 29 29 28 29 29 30 29 32 31 27 26 26 27 28 27 28 29 31 35 40 42 43 42 43 43 42 41 42 43 43 43 42 41 41 41 41
30 31 33 32 31 27 26 26 27 28 29 29 29 29 29 31 32 29 28 26 27 27 27 29 33 35 37 40 41 41 40 41 41 42 42 42 42 41 41 41 41 42 42 42
31 32 28 31 30 30 29 28 28 27 27 27 27 28 29 32 32 31 30 29 29 27 31 35 38 39 42 42 42 43 42 41 41 41 42 41 42 40 39 39 36 36 37 37
32 31 28 30 27 27 27 27 29 28 29 27 27 27 28 31 33 32 32 30 30 32 37 40 42 42 42 42 42 41 39 38 38 39 38 37 35 35 35 34 33 34 35 34
32 29 26 29 29 28 28 25 27 26 26 27 28 28 28 31 34 32 32 31 36 40 41 39 39 39 39 37 37 37 37 36 35 36 36 35 34 34 34 34 34 34 33 34
33 30 29 28 26 28 25 24 27 27 27 27 27 28 32 35 35 35 35 37 40 39 39 40 40 40 37 36 36 37 36 35 34 35 34 34 34 34 33 33 32 33 32 33
33 30 28 31 27 27 29 31 28 26 26 28 28 32 33 35 35 36 35 36 37 37 39 39 38 39 36 35 36 36 35 35 34 34 34 34 34 33 33 32 32 31 31 31
31 30 32 32 29 30 28 28 26 25 26 27 29 32 29 32 39 40 35 35 36 36 37 36 36 36 36 37 36 35 35 34 34 34 34 34 33 32 32 33 32 31 31 30
31 31 29 31 26 28 24 26 23 23 24 27 35 38 36 41 42 39 36 33 34 34 35 35 35 34 32 38 37 35 34 34 34 33 33 34 33 32 33 32 31 30 29 29
31 30 27 27 24 23 21 22 21 21 23 28 31 30 30 34 36 36 36 34 31 31 31 32 34 32 33 38 37 36 35 34 34 34 33 33 33 32 31 30 30 29 29 29
28 30 27 27 25 24 23 21 20 21 23 24 24 25 26 25 27 28 30 31 29 30 30 29 30 32 35 37 37 35 34 33 33 33 32 32 31 30 27 27 27 28 29 31
29 29 27 26 25 21 18 18 19 18 17 18 19 19 20 22 24 24 24 26 29 32 31 32 31 34 36 37 36 35 34 34 32 32 32 31 30 29 26 26 26 26 27 27
21 20 20 18 17 16 14 14 16 15 14 14 15 16 17 18 18 18 18 20 20 22 37 41 39 37 37 38 36 35 35 32 32 32 32 32 32 31 29 25 25 25 25 25
15 14 11 13 11 13 13 13 13 14 15 15 16 17 18 16 17 18 18 19 20 26 35 37 36 34 35 35 34 34 34 33 33 33 33 33 32 31 28 27 26 25 25 25
16 15 16 17 16 17 18 18 19 21 21 21 21 20 20 21 20 20 20 22 25 28 34 35 34 33 33 33 33 32 32 32 32 32 31 31 31 29 27 27 25 24 23 23
23 25 25 26 27 26 24 24 23 22 20 22 23 24 26 28 32 31 31 36 36 36 36 34 32 32 32 32 33 32 31 31 31 30 29 29 28 27 27 27 25 23 25 25
30 31 31 31 31 30 28 25 22 21 24 28 36 35 35 34 34 35 34 33 33 33 33 32 32 31 31 32 32 32 31 29 29 29 28 27 27 27 27 25 25 25 26 25
30 30 30 31 32 31 31 26 25 28 33 35 35 33 32 32 32 34 33 32 31 30 30 32 30 31 30 31 30 29 28 28 28 26 27 27 27 26 27 27 26 27 25 24
30 31 31 31 31 33 33 33 34 34 35 34 33 32 31 31 31 31 32 31 32 33 31 30 29 29 28 28 28 27 27 27 25 26 27 27 28 28 27 26 26 27 25 24
30 31 31 32 31 31 31 32 32 33 34 33 33 31 31 31 31 32 31 29 30 30 29 29 29 28 27 27 27 28 27 27 27 27 27 28 27 27 26 26 26 25 26 25
31 31 31 31 31 30 30 31 33 33 33 33 31 31 30 29 30 30 29 30 29 29 28 28 28 28 28 27 27 28 28 27 27 27 27 28 26 26 25 25 25 25 25 25
30 31 31 31 30 30 31 31 32 33 32 31 31 30 31 30 29 28 27 28 28 28 28 29 29 28 28 30 29 29 28 27 26 27 27 27 27 26 26 25 25 24 24 24
30 30 31 31 31 31 30 31 32 32 32 32 32 32 30 29 29 28 28 28 28 29 30 31 29 28 28 30 29 28 27 27 26 27 27 28 27 27 26 26 24 24 24 24
28 30 30 30 29 29 30 30 30 29 30 30 30 30 30 30 30 29 29 29 29 28 30 29 28 28 30 30 29 29 28 28 27 28 27 27 27 27 26 26 25 24 24 23
27 27 28 28 28 28 28 28 28 28 28 29 28 30 31 29 30 29 30 29 28 29 30 29 30 29 30 29 30 30 29 28 28 28 27 27 27 26 26 25 24 24 24 24
27 27 27 27 26 26 26 26 27 27 28 29 28 29 30 30 30 29 29 29 29 30 30 30 30 29 30 30 30 29 29 28 28 27 28 27 27 27 26 25 25 25 24 24
Wind_Speed
23 17 6 17 29 31 37 37 29 37 33 30 20 20 20 20 22 23 23 25 27 24 21 19 14 10 8 7 8 9 10 11 9 7 6 6 6 5 5 5 8 9 10 10
20 19 17 18 23 29 29 34 35 36 39 28 22 21 19 19 20 24 25 27 25 24 21 11 6 10 8 9 8 8 8 8 8 7 6 6 4 3 3 4 7 9 10 9
14 18 18 21 32 27 29 29 30 34 36 28 27 26 25 18 19 24 26 26 23 20 12 10 11 10 10 9 8 9 8 8 7 6 5 4 4 3 1 3 5 5 5 8
12 5 14 26 24 28 34 35 32 31 34 32 27 24 27 20 21 24 23 22 18 10 9 10 10 10 9 8 7 6 6 4 2 3 4 3 4 3 1 1 2 1 1 2
11 13 16 19 22 21 19 29 30 32 34 33 29 25 27 17 17 20 17 13 9 10 12 12 10 12 11 8 7 7 6 5 5 5 6 5 5 4 2 3 2 1 1 4
8 11 20 27 27 17 10 27 19 21 26 25 21 25 23 15 2 6 7 13 14 12 13 13 12 11 11 11 11 10 9 8 6 5 5 5 5 4 3 4 3 4 5 5
18 14 12 12 9 12 16 10 3 8 14 17 17 17 5 10 10 14 15 16 18 16 16 15 13 13 13 13 11 9 9 8 7 6 5 6 7 4 5 5 6 6 7 6
13 10 12 16 14 17 5 4 2 2 5 8 9 9 6 9 12 13 16 17 19 18 16 14 13 13 13 12 11 10 10 10 9 7 7 6 6 5 5 6 7 6 7 6
16 13 8 4 19 9 2 5 3 3 2 2 7 7 6 9 11 10 15 15 14 12 12 12 13 12 11 11 13 12 10 9 8 8 7 6 6 6 6 6 6 6 6 6
12 14 8 12 4 7 5 6 5 8 8 6 8 8 5 9 11 12 11 12 12 12 13 12 13 11 7 14 14 12 11 9 10 9 8 7 6 7 7 7 5 4 5 6
16 6 9 11 9 10 9 8 8 6 6 8 8 8 10 9 10 11 10 10 10 11 11 12 11 11 8 13 14 12 10 10 10 9 9 8 4 0 3 6 3 5 6 6
14 14 13 15 12 10 10 9 7 8 7 6 5 6 6 7 10 11 9 8 10 11 11 10 10 10 10 12 12 11 10 9 10 9 9 9 9 7 12 10 7 8 8 8
5 10 10 10 13 10 10 8 7 6 5 6 4 2 4 5 6 5 7 9 8 5 7 9 9 11 12 13 12 12 11 11 10 9 10 10 10 10 7 7 8 7 8 10
13 14 13 11 11 9 7 7 7 4 3 3 6 7 8 9 10 11 11 11 11 11 8 3 7 12 13 12 13 11 6 10 10 10 10 9 8 8 9 8 8 6 6 7
11 5 3 7 5 6 4 5 7 8 9 9 10 10 11 14 13 14 13 12 12 7 6 8 10 10 11 10 12 11 10 11 9 9 9 10 9 10 9 9 8 10 10 8
9 7 8 8 8 8 9 10 10 10 9 9 9 10 10 11 12 13 13 10 8 11 8 9 11 12 12 11 10 9 10 11 10 10 11 11 10 11 11 10 10 10 10 11
9 9 9 9 8 8 9 9 9 9 7 7 7 7 7 8 8 12 4 8 7 5 12 10 9 11 12 11 11 10 10 10 10 10 11 11 11 11 10 11 11 11 11 11
2 3 1 3 6 7 8 8 7 7 7 3 6 4 1 2 5 3 7 9 7 8 9 11 12 10 9 10 10 10 10 11 10 10 10 11 11 10 10 10 11 10 12 12
5 5 4 4 5 10 10 9 7 5 7 5 7 6 4 2 2 6 10 11 11 10 8 11 13 12 11 10 11 10 10 11 10 10 11 11 10 10 10 10 11 10 11 12
6 5 4 4 2 2 4 2 1 2 4 9 10 8 7 7 7 9 10 8 4 6 12 12 12 10 11 12 9 9 9 10 11 10 10 10 9 10 9 9 9 11 12 11
7 5 5 5 4 2 1 3 6 8 8 9 9 9 10 8 8 10 10 7 5 9 9 12 10 10 10 11 9 9 9 10 10 11 10 10 9 9 9 10 10 9 10 10
5 5 5 5 5 5 4 4 7 9 10 10 10 12 11 9 9 6 6 6 9 9 9 9 9 11 11 11 9 10 10 10 9 9 9 10 10 10 10 10 10 10 9 10
6 5 6 6 7 6 6 6 7 8 9 10 10 11 10 9 6 5 5 6 9 9 8 8 10 11 13 8 9 9 9 10 9 9 9 10 10 10 10 11 10 11 10 11
8 7 7 8 7 7 8 7 7 7 8 8 8 9 8 7 4 2 5 10 8 10 6 10 12 13 12 9 9 10 9 9 9 9 9 9 10 9 10 10 11 10 10 11
9 9 8 8 7 6 8 7 7 7 7 7 7 7 5 4 4 5 6 8 9 10 8 11 13 12 9 9 10 11 10 9 9 9 10 10 10 10 10 10 10 11 10 10
10 8 8 6 6 8 8 8 6 6 7 7 6 6 4 3 5 8 8 8 9 9 10 11 10 10 8 10 9 10 10 8 9 9 10 10 10 10 10 11 11 10 10 10
8 7 8 6 4 4 4 5 5 6 6 6 6 7 6 5 7 8 8 9 9 9 10 12 11 10 8 8 9 10 9 8 9 9 10 10 10 10 11 11 11 10 9 9
Wind_Direction
208 227 227 200 217 222 222 226 226 246 247 249 229 214 222 219 221 217 217 214 216 212 214 211 203 219 227 183 196 204 207 208 192 188 196 189 194 204 219 244 258 258 252 252
224 242 242 243 224 222 230 236 239 248 254 258 265 270 265 223 222 220 217 217 222 217 221 212 206 224 180 173 185 187 188 188 176 188 190 197 206 224 252 265 271 283 270 266
235 231 244 247 233 234 237 234 235 242 252 264 261 257 255 226 239 230 223 225 219 221 195 203 197 179 170 167 170 176 173 171 177 190 215 204 215 230 258 281 304 355 5 22
244 157 219 244 234 229 240 248 250 252 256 261 268 275 279 253 236 235 236 230 221 182 176 179 177 146 135 149 150 151 159 148 143 198 189 156 82 99 90 63 73 318 33 89
192 204 258 277 248 229 235 247 243 246 255 261 261 266 265 260 253 253 225 205 154 174 168 170 156 148 143 129 129 130 134 145 145 143 139 136 153 147 110 111 98 73 72 111
160 215 231 247 241 250 217 253 250 256 262 268 267 263 257 275 208 113 106 139 148 142 161 161 156 143 140 141 143 149 154 159 151 135 144 154 154 148 154 125 141 132 95 88
201 229 240 241 137 135 197 248 5 293 264 254 263 269 39 88 134 137 145 152 155 164 176 163 158 154 151 153 162 158 142 134 125 112 128 144 148 149 128 141 135 111 99 94
206 233 238 236 168 212 274 49 21 280 270 255 248 85 112 139 144 159 160 160 171 173 168 163 161 155 157 168 161 155 151 148 145 143 132 143 129 133 139 153 137 129 121 123
196 217 215 259 224 234 324 262 188 202 127 210 194 156 163 156 154 170 175 177 183 176 168 171 175 171 166 175 167 164 156 153 150 147 146 146 150 156 166 184 171 157 169 160
202 221 222 216 174 172 185 170 146 136 120 128 131 138 124 129 158 176 189 192 187 187 188 189 195 196 193 150 164 161 164 164 160 165 165 164 174 197 203 194 180 159 188 172
217 218 176 208 183 165 153 147 141 126 136 141 152 175 182 178 181 190 205 217 218 214 218 208 196 192 176 153 154 164 165 167 166 175 176 165 157 292 162 70 72 190 181 158
212 202 205 192 164 155 161 164 150 146 139 141 183 186 204 211 203 205 210 222 225 233 225 220 202 188 170 155 167 168 173 179 183 175 170 182 171 140 62 84 74 78 80 118
187 167 186 150 167 168 178 167 166 165 169 163 144 203 198 206 216 237 258 228 224 267 232 224 207 184 173 169 181 183 185 182 178 175 175 188 185 169 159 98 80 80 93 103
133 134 147 166 173 176 191 187 152 206 234 243 255 248 248 254 258 245 250 251 248 231 205 192 170 163 150 167 169 173 182 164 182 177 176 179 180 170 153 168 153 127 115 125
162 184 159 159 197 189 214 222 238 246 254 255 252 248 260 258 250 256 254 255 259 250 169 174 177 170 161 171 162 162 165 170 173 160 158 153 158 155 160 156 143 138 131 135
153 164 167 190 202 211 218 226 234 240 247 251 246 250 249 253 262 266 267 268 252 239 198 187 175 158 157 163 157 163 163 163 160 161 158 163 164 165 166 154 151 158 162 155
177 188 199 207 216 231 228 225 226 231 221 216 226 238 252 272 297 281 285 60 79 85 127 153 159 149 154 161 162 160 156 162 169 158 168 167 167 167 162 162 170 174 162 160
118 80 118 238 246 239 216 210 206 210 202 193 63 74 75 260 261 296 127 108 115 115 125 136 137 141 148 158 160 157 156 161 167 165 165 170 165 164 169 174 173 170 152 162
153 170 181 208 238 223 231 194 191 184 127 132 136 140 130 58 267 160 143 146 148 142 133 128 140 146 150 158 153 151 157 162 161 166 170 158 165 170 172 176 171 163 160 168
137 130 143 150 145 232 187 78 191 172 153 159 147 135 110 91 108 124 130 123 117 137 145 147 156 155 159 157 162 155 156 161 171 165 156 162 168 158 160 165 161 162 166 180
137 123 138 147 146 129 154 198 197 186 169 159 149 135 120 123 126 131 138 134 107 139 147 158 159 160 159 160 172 150 160 169 158 155 162 165 160 160 166 162 162 167 173 174
135 125 128 135 143 130 135 140 149 151 144 126 123 121 127 134 142 115 55 136 145 156 162 167 167 163 159 170 158 159 165 165 154 158 165 161 169 173 172 167 170 171 173 171
139 132 127 138 134 114 102 104 110 126 132 137 146 152 163 160 167 155 156 140 148 171 170 168 144 148 157 176 148 159 160 159 164 170 173 171 174 176 172 172 173 173 174 173
144 152 141 122 124 128 115 108 109 114 122 131 138 150 159 162 164 165 110 137 144 160 173 143 155 159 168 167 165 161 163 167 177 183 174 170 171 170 171 169 176 177 176 173
154 146 140 148 143 128 125 130 127 133 146 144 152 169 185 185 184 135 152 153 154 173 162 157 163 172 189 171 171 169 171 180 182 176 175 176 174 175 176 176 180 181 178 180
155 155 148 157 147 152 155 172 169 172 181 170 180 179 168 175 137 155 162 163 173 186 168 166 172 182 197 182 181 173 163 175 180 182 181 182 179 180 178 184 183 182 185 187
154 153 143 152 163 165 173 161 164 187 196 186 182 176 176 175 174 180 183 182 187 188 170 172 177 194 190 182 177 180 173 175 187 187 185 179 183 183 184 187 183 183 185 186